User: anonymous   Login
Location: Oshawa
(43.9000°N, 78.8670°W)
Time: 14:44:41
(UTC-05:00)
Language:

ITAMSAT 1 - Orbit

View from above orbital plane
View from above orbital plane
View from above satellite
View from above satellite

Ground track
Ground track

The orbit data is extracted from the following two-line orbital elements,

1 22826U 93061D   17054.89811700 +.00000010 +00000-0 +21599-4 0  9991
2 22826 098.7917 019.2734 0007974 296.6593 063.3772 14.30314386221136
Epoch (UTC): 23 February 2017 21:33:17
Eccentricity: 0.0007974
inclination: 98.7917°
perigee height: 785 km
apogee height: 796 km
right ascension of ascending node: 19.2734°
argument of perigee: 296.6593°
revolutions per day: 14.30314386
mean anomaly at epoch: 63.3772°
orbit number at epoch: 22113

The dashed part of the orbit path shows where the satellite is in the earth's shadow,  

DLR